Devils Lake, ND

4:03 PM CDT on May 24, 2017 (GMT -0500)
Devils Lake Municipal

Weather History for KDVL - March, 2013

Change the Weather History Date:

Thursday, March 7, 2013

  Actual Average Record
Temperature  
Mean Temperature 16 °F -  
Max Temperature 23 °F 27 °F 55 °F (1968)
Min Temperature 8 °F 8 °F -20 °F (2008)
Degree Days  
Heating Degree Days 50    
Moisture  
Dew Point 14 °F    
Average Humidity 92    
Maximum Humidity 100    
Minimum Humidity 79    
Precipitation  
Precipitation 0.00 in - - ()
Sea Level Pressure  
Sea Level Pressure 30.14 in    
Wind  
Wind Speed 14 mph (SE)    
Max Wind Speed 18 mph    
Max Gust Speed -    
Visibility 8 miles    
Events      
Averages and records for this station are not official NWS values.
T = Trace of Precipitation, MM = Missing Value Source: NWS Daily Summary

Daily Weather History Graph

Daily Weather History Graph

Search for Another Location

Airport or City:

Trip Planner

Search our weather history database for the weather conditions in past years. The results will help you decide how hot, cold, wet, or windy it might be!

Date:

Astronomy

Mar. 07, 2013 Rise Set
Actual Time 7:04 AM CST 6:29 PM CST
Civil Twilight 6:33 AM CST 7:00 PM CST
Nautical Twilight 5:57 AM CST 7:36 PM CST
Astronomical Twilight 5:21 AM CST 8:13 PM CST
Moon 4:21 AM CST (3/7) 2:03 PM CST (3/7)
Length of Visible Light 12h 27m
Length of Day
11h 25m
Waning Crescent, 20% of the Moon is Illuminated
Mar 7
Waning Crescent
Mar 11
New
Mar 19
First Quarter
Mar 27
Full
Apr 2
Last Quarter

Hourly Weather History & Observations

Time (CST) Temp. Windchill Dew Point Humidity Pressure Visibility Wind Dir Wind Speed Gust Speed Precip Events Conditions
12:15 AM 15.8 °F 0.9 °F 12.2 °F 86% 30.22 in 10.0 mi SSE 15.0 mph - N/A   Overcast
12:35 AM 15.8 °F 0.9 °F 12.2 °F 86% 30.21 in 10.0 mi SE 15.0 mph - N/A   Overcast
12:55 AM 14.0 °F -1.4 °F 10.4 °F 86% 30.21 in 10.0 mi SE 15.0 mph - N/A   Overcast
1:15 AM 12.2 °F -3.1 °F 12.2 °F 100% 30.20 in 10.0 mi SE 13.8 mph - N/A   Overcast
1:35 AM 10.4 °F -6.0 °F 10.4 °F 100% 30.19 in 10.0 mi ESE 15.0 mph - N/A   Mostly Cloudy
1:55 AM 10.4 °F -5.4 °F 10.4 °F 100% 30.19 in 8.0 mi ESE 13.8 mph - N/A   Clear
2:15 AM 10.4 °F -4.8 °F 8.6 °F 92% 30.19 in 5.0 mi SE 12.7 mph - N/A   Clear
2:55 AM 8.6 °F -4.7 °F 6.8 °F 92% 30.18 in 5.0 mi SE 9.2 mph - N/A   Mostly Cloudy
3:15 AM 8.6 °F -6.3 °F 8.6 °F 100% 30.17 in 10.0 mi SE 11.5 mph - N/A   Overcast
3:35 AM 10.4 °F -4.8 °F 6.8 °F 85% 30.17 in 10.0 mi SE 12.7 mph - N/A   Overcast
3:55 AM 10.4 °F -4.8 °F 8.6 °F 92% 30.16 in 10.0 mi SE 12.7 mph - N/A   Overcast
4:15 AM 10.4 °F -4.8 °F 8.6 °F 92% 30.15 in 5.0 mi SE 12.7 mph - N/A   Overcast
4:35 AM 10.4 °F -5.4 °F 8.6 °F 92% 30.15 in 5.0 mi SE 13.8 mph - N/A   Mostly Cloudy
4:55 AM 10.4 °F -5.4 °F 6.8 °F 85% 30.15 in 5.0 mi SE 13.8 mph - N/A   Partly Cloudy
5:15 AM 10.4 °F -4.8 °F 6.8 °F 85% 30.14 in 7.0 mi ESE 12.7 mph - N/A   Clear
5:35 AM 10.4 °F -5.4 °F 8.6 °F 92% 30.14 in 5.0 mi ESE 13.8 mph - N/A   Clear
5:55 AM 10.4 °F -5.4 °F 10.4 °F 100% 30.14 in 10.0 mi SE 13.8 mph - N/A   Clear
6:15 AM 10.4 °F -6.0 °F 8.6 °F 92% 30.14 in 7.0 mi SE 15.0 mph - N/A   Clear
6:35 AM 10.4 °F -6.0 °F 8.6 °F 92% 30.14 in 8.0 mi SE 15.0 mph - N/A   Clear
6:55 AM 10.4 °F -6.0 °F 8.6 °F 92% 30.15 in 10.0 mi SE 15.0 mph - N/A   Clear
7:15 AM 10.4 °F -5.4 °F 8.6 °F 92% 30.14 in 10.0 mi ESE 13.8 mph - N/A   Clear
7:35 AM 8.6 °F -7.7 °F 6.8 °F 92% 30.14 in 10.0 mi SE 13.8 mph - N/A   Clear
7:55 AM 10.4 °F -6.0 °F 8.6 °F 92% 30.14 in 10.0 mi SE 15.0 mph - N/A   Clear
8:15 AM 10.4 °F -7.2 °F 6.8 °F 85% 30.13 in 9.0 mi SE 17.3 mph - N/A   Clear
8:35 AM 10.4 °F -7.2 °F 8.6 °F 92% 30.13 in 8.0 mi SE 17.3 mph - N/A   Clear
8:55 AM 10.4 °F -7.2 °F 8.6 °F 92% 30.13 in 10.0 mi SE 17.3 mph - N/A   Clear
9:15 AM 10.4 °F -5.4 °F 8.6 °F 92% 30.15 in 10.0 mi SE 13.8 mph - N/A   Clear
9:35 AM 12.2 °F -3.7 °F 8.6 °F 85% 30.15 in 9.0 mi SE 15.0 mph - N/A   Mostly Cloudy
9:55 AM 12.2 °F -5.3 °F 10.4 °F 92% 30.14 in 8.0 mi SE 18.4 mph - N/A   Mostly Cloudy
10:15 AM 14.0 °F -3.0 °F 10.4 °F 86% 30.13 in 6.0 mi SE 18.4 mph - N/A   Partly Cloudy
10:35 AM 15.8 °F -0.2 °F 10.4 °F 79% 30.13 in 4.0 mi SE 17.3 mph - N/A   Clear
10:55 AM 15.8 °F -0.6 °F 12.2 °F 86% 30.12 in 5.0 mi SE 18.4 mph - N/A   Clear
11:15 AM 15.8 °F -0.2 °F 15.8 °F 100% 30.12 in 5.0 mi SE 17.3 mph - N/A   Clear
11:35 AM 17.6 °F 3.2 °F 15.8 °F 93% 30.12 in 7.0 mi SE 15.0 mph - N/A   Clear
11:55 AM 17.6 °F 2.2 °F 14.0 °F 86% 30.13 in 5.0 mi SE 17.3 mph - N/A   Clear
12:15 PM 17.6 °F 2.2 °F 15.8 °F 93% 30.12 in 6.0 mi SE 17.3 mph - N/A   Clear
12:35 PM 19.4 °F 4.5 °F 15.8 °F 86% 30.13 in 5.0 mi SE 17.3 mph - N/A   Clear
12:55 PM 19.4 °F 5.5 °F 15.8 °F 86% 30.13 in 6.0 mi SSE 15.0 mph - N/A   Clear
1:15 PM 19.4 °F 6.0 °F 17.6 °F 93% 30.12 in 7.0 mi SE 13.8 mph - N/A   Scattered Clouds
1:35 PM 19.4 °F 4.1 °F 17.6 °F 93% 30.12 in 9.0 mi SSE 18.4 mph - N/A   Mostly Cloudy
1:55 PM 19.4 °F 5.5 °F 17.6 °F 93% 30.11 in 9.0 mi SSE 15.0 mph - N/A   Overcast
2:15 PM 19.4 °F 6.0 °F 17.6 °F 93% 30.11 in 9.0 mi SE 13.8 mph - N/A   Overcast
2:35 PM 19.4 °F 6.0 °F 15.8 °F 86% 30.10 in 9.0 mi SE 13.8 mph - N/A   Overcast
2:55 PM 19.4 °F 5.5 °F 17.6 °F 93% 30.10 in 10.0 mi SE 15.0 mph - N/A   Overcast
3:15 PM 19.4 °F 5.0 °F 17.6 °F 93% 30.11 in 9.0 mi SSE 16.1 mph - N/A   Overcast
3:35 PM 19.4 °F 4.5 °F 19.4 °F 100% 30.11 in 10.0 mi SSE 17.3 mph - N/A   Overcast
3:55 PM 19.4 °F 5.0 °F 17.6 °F 93% 30.10 in 10.0 mi SE 16.1 mph - N/A   Overcast
4:15 PM 19.4 °F 5.5 °F 17.6 °F 93% 30.11 in 10.0 mi SSE 15.0 mph - N/A   Overcast
4:35 PM 21.2 °F 6.4 °F 17.6 °F 86% 30.11 in 10.0 mi SSE 18.4 mph - N/A   Overcast
6:15 PM 21.2 °F 9.5 °F 17.6 °F 86% 30.12 in 9.0 mi South 11.5 mph - N/A   Overcast
6:35 PM 21.2 °F 9.5 °F 19.4 °F 93% 30.12 in 9.0 mi SSE 11.5 mph - N/A   Overcast
6:55 PM 21.2 °F 9.5 °F 19.4 °F 93% 30.12 in 9.0 mi SSE 11.5 mph - N/A   Overcast
7:15 PM 21.2 °F 9.5 °F 19.4 °F 93% 30.11 in 9.0 mi SSE 11.5 mph - N/A   Overcast
7:35 PM 21.2 °F 10.9 °F 19.4 °F 93% 30.12 in 9.0 mi South 9.2 mph - N/A   Overcast
7:55 PM 21.2 °F 9.5 °F 19.4 °F 93% 30.11 in 8.0 mi South 11.5 mph - N/A   Overcast
8:15 PM 21.2 °F 10.1 °F 21.2 °F 100% 30.12 in 7.0 mi South 10.4 mph - N/A   Overcast
8:35 PM 21.2 °F 9.5 °F 21.2 °F 100% 30.12 in 7.0 mi South 11.5 mph - N/A   Overcast
8:55 PM 21.2 °F 10.1 °F 21.2 °F 100% 30.12 in 5.0 mi South 10.4 mph - N/A   Overcast
9:15 PM 21.2 °F 10.1 °F 19.4 °F 93% 30.12 in 4.0 mi South 10.4 mph - N/A   Overcast
9:35 PM 21.2 °F 10.9 °F 21.2 °F 100% 30.12 in 3.0 mi South 9.2 mph - N/A   Overcast
9:55 PM 21.2 °F 10.1 °F 21.2 °F 100% 30.13 in 3.0 mi South 10.4 mph - N/A   Overcast
10:15 PM 21.2 °F 10.9 °F 21.2 °F 100% 30.13 in 3.0 mi South 9.2 mph - N/A   Overcast
10:35 PM 21.2 °F 10.9 °F 19.4 °F 93% 30.13 in 4.0 mi South 9.2 mph - N/A   Overcast
10:55 PM 23.0 °F 12.4 °F 21.2 °F 93% 30.13 in 5.0 mi South 10.4 mph - N/A   Overcast
11:15 PM 23.0 °F 11.7 °F 21.2 °F 93% 30.13 in 6.0 mi SSW 11.5 mph - N/A   Overcast
11:35 PM 23.0 °F 12.4 °F 21.2 °F 93% 30.13 in 6.0 mi SSW 10.4 mph - N/A   Overcast
11:55 PM 23.0 °F 13.1 °F 21.2 °F 93% 30.13 in 7.0 mi SSW 9.2 mph - N/A   Overcast